Location: Maiden
(35.5760°N, 81.2120°W)
Time: 21:13:20
(UTC-04:00)

Cosmos 1092 Rocket - Pass Details

Date: 14 June 2018
Orbit: 955 x 994 km, 82.9° (Epoch: 15 October)

Event Time Altitude Azimuth Distance (km) Brightness Sun altitude
Rises 21:02:20 0° 354° (N) 3,703 7.6 -4.4°
Reaches altitude 10° 21:04:53 10° 356° (N) 2,746 6.9 -4.8°
Maximum altitude 21:11:11 81° 84° (E) 994 4.0 -5.9°
Drops below altitude 10° 21:17:24 10° 171° (S) 2,703 5.9 -6.9°
Sets 21:19:52 0° 173° (S) 3,641 6.6 -7.4°
